New Roads False River Regiona, LA

10:50 PM CDT on October 23, 2019 (GMT -0500)
False River

Weather History for KHZR - September, 2019

Change the Weather History Date:

Saturday, September 21, 2019

  Actual Average (WUND) Record (WUND)
Temperature  
Mean Temperature 78 °F -  
Max Temperature 87 °F - - (-1)
Min Temperature 69 °F - - (-1)
Cooling Degree Days 13    
Growing Degree Days 28 (Base 50)    
Moisture  
Dew Point 71 °F    
Average Humidity 80    
Maximum Humidity 100    
Minimum Humidity 58    
Precipitation  
Precipitation 0.00 in - - ()
Sea Level Pressure  
Sea Level Pressure 30.12 in    
Wind  
Wind Speed 3 mph ()    
Max Wind Speed 13 mph    
Max Gust Speed 22 mph    
Visibility 10.0 miles    
Events      
Averages and records for this station are not official NWS values.
T = Trace of Precipitation, MM = Missing Value Source: Averaged Metar Reports

Daily Weather History Graph

Daily Weather History Graph

Search for Another Location

Airport or City:

Astronomy

Sep. 21, 2019 Rise Set
Actual Time 6:53 AM CDT 7:04 PM CDT
Civil Twilight 6:29 AM CDT 7:28 PM CDT
Nautical Twilight 6:01 AM CDT 7:56 PM CDT
Astronomical Twilight 5:32 AM CDT 8:24 PM CDT
Moon No Moon Rise 1:34 PM CDT (9/21)
Length of Visible Light 12h 58m
Length of Day
12h 10m
Waning Gibbous, 54% of the Moon is Illuminated
Sep 21
Waning Gibbous
Sep 21
Last Quarter
Sep 28
New
Oct 5
First Quarter
Oct 13
Full

Hourly Weather History & Observations

Time (CDT) Temp. Heat Index Dew Point Humidity Pressure Visibility Wind Dir Wind Speed Gust Speed Precip Events Conditions
12:17 AM 73.4 °F - 71.6 °F 94% 30.12 in 10.0 mi Calm Calm - N/A   Clear
12:37 AM 73.4 °F - 71.6 °F 94% 30.12 in 10.0 mi Calm Calm - N/A   Clear
12:56 AM 73.4 °F - 69.8 °F 88% 30.12 in 10.0 mi Calm Calm - N/A   Clear
1:18 AM 71.6 °F - 69.8 °F 94% 30.12 in 10.0 mi ESE 3.5 mph - N/A   Clear
1:58 AM 71.6 °F - 69.8 °F 94% 30.12 in 10.0 mi Calm Calm - N/A   Clear
2:40 AM 71.6 °F - 69.8 °F 94% 30.12 in 10.0 mi Calm Calm - N/A   Clear
3:17 AM 69.8 °F - 69.8 °F 100% 30.11 in 10.0 mi Calm Calm - N/A   Clear
4:17 AM 69.8 °F - 69.8 °F 100% 30.11 in 10.0 mi Calm Calm - N/A   Clear
4:36 AM 69.8 °F - 69.8 °F 100% 30.11 in 10.0 mi Calm Calm - N/A   Clear
4:58 AM 69.8 °F - 69.8 °F 100% 30.12 in 10.0 mi Calm Calm - N/A   Clear
5:38 AM 69.8 °F - 69.8 °F 100% 30.12 in 10.0 mi Calm Calm - N/A   Clear
5:57 AM 69.8 °F - 69.8 °F 100% 30.12 in 10.0 mi Calm Calm - N/A   Clear
6:37 AM 69.8 °F - 68.0 °F 94% 30.13 in 10.0 mi Calm Calm - N/A   Clear
6:57 AM 69.8 °F - 68.0 °F 94% 30.13 in 10.0 mi Calm Calm - N/A   Clear
7:18 AM 69.8 °F - 69.8 °F 100% 30.14 in 10.0 mi Calm Calm - N/A   Clear
7:39 AM 71.6 °F - 69.8 °F 94% 30.14 in 10.0 mi Calm Calm - N/A   Clear
7:58 AM 71.6 °F - 69.8 °F 94% 30.15 in 10.0 mi Calm Calm - N/A   Clear
8:17 AM 73.4 °F - 69.8 °F 88% 30.15 in 10.0 mi East 3.5 mph - N/A   Clear
8:38 AM 75.2 °F - 71.6 °F 89% 30.16 in 10.0 mi ENE 3.5 mph - N/A   Clear
8:59 AM 77.0 °F - 71.6 °F 83% 30.16 in 10.0 mi ENE 4.6 mph - N/A   Clear
9:17 AM 78.8 °F - 71.6 °F 78% 30.17 in 10.0 mi ENE 5.8 mph - N/A   Clear
9:38 AM 78.8 °F - 71.6 °F 78% 30.17 in 10.0 mi East 6.9 mph - N/A   Clear
9:57 AM 80.6 °F 84.6 °F 71.6 °F 74% 30.17 in 10.0 mi East 8.1 mph - N/A   Clear
10:36 AM 82.4 °F 88.2 °F 73.4 °F 74% 30.17 in 10.0 mi ENE 9.2 mph - N/A   Scattered Clouds
10:57 AM 82.4 °F 87.2 °F 71.6 °F 70% 30.16 in 10.0 mi East 8.1 mph 17.3 mph N/A   Mostly Cloudy
11:19 AM 84.2 °F 90.9 °F 73.4 °F 70% 30.16 in 10.0 mi East 6.9 mph - N/A   Mostly Cloudy
11:37 AM 84.2 °F 90.9 °F 73.4 °F 70% 30.16 in 10.0 mi ESE 8.1 mph - N/A   Scattered Clouds
11:59 AM 86.0 °F 93.4 °F 73.4 °F 66% 30.16 in 10.0 mi East 8.1 mph - N/A   Scattered Clouds
12:17 PM 84.2 °F 89.6 °F 71.6 °F 66% 30.15 in 10.0 mi ESE 8.1 mph - N/A   Scattered Clouds
12:38 PM 87.8 °F 95.6 °F 73.4 °F 62% 30.15 in 10.0 mi ESE 12.7 mph 17.3 mph N/A   Mostly Cloudy
12:57 PM 87.8 °F 93.8 °F 71.6 °F 58% 30.14 in 10.0 mi East 4.6 mph - N/A   Scattered Clouds
1:17 PM 87.8 °F 93.8 °F 71.6 °F 58% 30.13 in 10.0 mi ESE 6.9 mph - N/A   Scattered Clouds
1:39 PM 87.8 °F 93.8 °F 71.6 °F 58% 30.12 in 10.0 mi East 8.1 mph - N/A   Scattered Clouds
1:58 PM 87.8 °F 93.8 °F 71.6 °F 58% 30.11 in 10.0 mi East 6.9 mph - N/A   Scattered Clouds
2:17 PM 87.8 °F 93.8 °F 71.6 °F 58% 30.10 in 10.0 mi East 4.6 mph - N/A   Scattered Clouds
2:57 PM 87.8 °F 93.8 °F 71.6 °F 58% 30.09 in 10.0 mi East 5.8 mph - N/A   Scattered Clouds
3:16 PM 87.8 °F 93.8 °F 71.6 °F 58% 30.08 in 10.0 mi East 8.1 mph - N/A   Scattered Clouds
3:36 PM 86.0 °F 91.8 °F 71.6 °F 62% 30.09 in 10.0 mi SE 10.4 mph - N/A   Mostly Cloudy
3:56 PM 82.4 °F 87.2 °F 71.6 °F 70% 30.09 in 10.0 mi ESE 11.5 mph 21.9 mph N/A   Mostly Cloudy
4:17 PM 82.4 °F 86.3 °F 69.8 °F 66% 30.08 in 10.0 mi East 4.6 mph - N/A   Overcast
4:36 PM 84.2 °F 89.6 °F 71.6 °F 66% 30.08 in 10.0 mi ESE 4.6 mph - N/A   Mostly Cloudy
4:58 PM 86.0 °F 93.4 °F 73.4 °F 66% 30.08 in 10.0 mi East 10.4 mph - N/A   Scattered Clouds
5:17 PM 82.4 °F 88.2 °F 73.4 °F 74% 30.08 in 10.0 mi East 9.2 mph 17.3 mph N/A   Mostly Cloudy
5:39 PM 82.4 °F 88.2 °F 73.4 °F 74% 30.09 in 10.0 mi East 11.5 mph 17.3 mph N/A   Scattered Clouds
5:57 PM 80.6 °F 85.4 °F 73.4 °F 79% 30.09 in 10.0 mi ESE 9.2 mph 16.1 mph N/A   Scattered Clouds
6:16 PM 80.6 °F 84.6 °F 71.6 °F 74% 30.09 in 10.0 mi East 10.4 mph 16.1 mph N/A   Scattered Clouds
6:36 PM 80.6 °F 84.6 °F 71.6 °F 74% 30.09 in 10.0 mi ESE 11.5 mph 17.3 mph N/A   Clear
6:57 PM 78.8 °F - 71.6 °F 78% 30.09 in 10.0 mi ESE 9.2 mph - N/A   Clear
7:17 PM 78.8 °F - 71.6 °F 78% 30.09 in 10.0 mi East 8.1 mph - N/A   Clear
7:37 PM 78.8 °F - 71.6 °F 78% 30.09 in 10.0 mi ESE 6.9 mph - N/A   Clear
7:58 PM 77.0 °F - 71.6 °F 83% 30.10 in 10.0 mi ESE 8.1 mph - N/A   Clear
8:18 PM 77.0 °F - 71.6 °F 83% 30.10 in 10.0 mi ESE 9.2 mph - N/A   Clear
8:37 PM 75.2 °F - 71.6 °F 89% 30.11 in 10.0 mi ESE 8.1 mph - N/A   Clear
9:17 PM 75.2 °F - 71.6 °F 89% 30.12 in 10.0 mi ESE 4.6 mph - N/A   Scattered Clouds
9:58 PM 75.2 °F - 71.6 °F 89% 30.13 in 10.0 mi ESE 6.9 mph - N/A   Mostly Cloudy
10:17 PM 75.2 °F - 71.6 °F 89% 30.13 in 10.0 mi ESE 6.9 mph - N/A   Mostly Cloudy
10:37 PM 75.2 °F - 71.6 °F 89% 30.13 in 10.0 mi ESE 4.6 mph - N/A   Mostly Cloudy
11:17 PM 75.2 °F - 71.6 °F 89% 30.12 in 10.0 mi Calm Calm - N/A   Mostly Cloudy